"Pseudo-MPEC" for W29WQM
Created 2025 May 10 22:31:04 UT using Find_Orb
Click here for an explanation of pseudo-MPECs
Astrometry:
W29WQM *3C2025 05 05.28819713 08 21.658-15 37 25.56 ~55N2 20.04GVNEOCPT14
W29WQM 3C2025 05 05.29027713 08 24.718-15 36 33.91 ~55N2 19.85GVNEOCPT14
W29WQM 3C2025 05 05.29125413 08 26.162-15 36 09.52 ~55N2 19.93GVNEOCPT14
W29WQM 3C2025 05 05.29223513 08 27.600-15 35 45.30 ~55N2 19.94GVNEOCPT14
Station data:
(T14) Mauna Kea-UH/Tholen NEO Follow-Up (CFHT) (N19.825252 W155.468876)
US/Hawaii. Observer R. Weryk. 3.6-m Canada-France-Hawaii Telescope.
Orbital elements: W29WQM
Perihelion 2025 May 9.20833 +/- 32.7 TT = 4:59:59 (JD 2460804.70833)
Epoch 2025 May 5.0 TT = JDT 2460800.5 Earth MOID: 0.0294 AutoNEOCP
M 358.12727114 +/- 25 (J2000 ecliptic)
n 0.44500550 +/- 0.357 Peri. 3.39767 +/- 60
a 1.69912681 +/- 0.909 Node 224.86475 +/- 49
e 0.3892629 +/- 0.252 Incl. 15.33911 +/- 9
P 2.215/808.963d H 26.46 G 0.15 U 12.1 SR
q 1.03771967 +/- 0.287 Q 2.36053396 +/- 30.9
From 4 observations 2025 May 5 (5.8 min); mean residual 0".05
Residuals in arcseconds: 250505 T14 .00 .01- 250505 T14 .06+ .10+ 250505 T14 .03- .02- 250505 T14 .03- .06- Ephemerides (geocentric): Date (UTC) HH RA Dec delta r elong mag " sig PA ---- -------- ------------ ------------ ------ ------ ----- --- -------- 2025 05 10 23 15 35 42.593 +24 32 52.43 .03772 1.0379 137.2 21.0 46d 106 2025 05 11 00 15 36 38.272 +24 45 04.35 .03786 1.0379 137.0 21.1 46d 106 2025 05 11 01 15 37 33.729 +24 57 09.58 .03799 1.0379 136.8 21.1 46d 106 2025 05 11 02 15 38 28.962 +25 09 08.15 .03813 1.0379 136.5 21.1 46d 106 2025 05 11 03 15 39 23.971 +25 21 00.09 .03827 1.0379 136.3 21.1 46d 106 2025 05 11 04 15 40 18.757 +25 32 45.44 .03841 1.0379 136.1 21.1 46d 106 2025 05 11 05 15 41 13.317 +25 44 24.24 .03855 1.0379 135.8 21.1 45d 106 2025 05 11 06 15 42 07.653 +25 55 56.52 .03870 1.0379 135.6 21.1 45d 106 2025 05 11 07 15 43 01.763 +26 07 22.31 .03884 1.0379 135.4 21.2 45d 106 2025 05 11 08 15 43 55.646 +26 18 41.66 .03898 1.0379 135.1 21.2 45d 106 2025 05 11 09 15 44 49.304 +26 29 54.60 .03913 1.0380 134.9 21.2 45d 106 2025 05 11 10 15 45 42.735 +26 41 01.17 .03927 1.0380 134.7 21.2 45d 106 2025 05 11 11 15 46 35.939 +26 52 01.42 .03942 1.0380 134.5 21.2 45d 106 2025 05 11 12 15 47 28.916 +27 02 55.39 .03957 1.0380 134.3 21.2 45d 106 2025 05 11 13 15 48 21.666 +27 13 43.10 .03972 1.0380 134.0 21.2 45d 106 2025 05 11 14 15 49 14.188 +27 24 24.62 .03987 1.0380 133.8 21.2 45d 106 2025 05 11 15 15 50 06.482 +27 34 59.98 .04002 1.0380 133.6 21.3 45d 106 2025 05 11 16 15 50 58.549 +27 45 29.22 .04017 1.0380 133.4 21.3 45d 107 2025 05 11 17 15 51 50.387 +27 55 52.39 .04032 1.0380 133.2 21.3 45d 107 2025 05 11 18 15 52 41.998 +28 06 09.52 .04047 1.0380 133.0 21.3 45d 107 2025 05 11 19 15 53 33.380 +28 16 20.67 .04063 1.0381 132.8 21.3 45d 107 2025 05 11 20 15 54 24.534 +28 26 25.89 .04078 1.0381 132.6 21.3 45d 107 2025 05 11 21 15 55 15.460 +28 36 25.20 .04094 1.0381 132.3 21.3 45d 107 2025 05 11 22 15 56 06.158 +28 46 18.67 .04109 1.0381 132.1 21.4 45d 107 2025 05 11 23 15 56 56.628 +28 56 06.33 .04125 1.0381 131.9 21.4 45d 107 2025 05 12 00 15 57 46.870 +29 05 48.23 .04141 1.0381 131.7 21.4 45d 107 2025 05 12 01 15 58 36.883 +29 15 24.42 .04156 1.0381 131.5 21.4 45d 107 2025 05 12 02 15 59 26.670 +29 24 54.94 .04172 1.0381 131.3 21.4 45d 107 2025 05 12 03 16 00 16.228 +29 34 19.84 .04188 1.0382 131.1 21.4 45d 107 2025 05 12 04 16 01 05.559 +29 43 39.17 .04204 1.0382 130.9 21.4 45d 107 2025 05 12 05 16 01 54.663 +29 52 52.97 .04220 1.0382 130.7 21.5 45d 107 2025 05 12 06 16 02 43.539 +30 02 01.29 .04237 1.0382 130.6 21.5 45d 107 2025 05 12 07 16 03 32.189 +30 11 04.17 .04253 1.0382 130.4 21.5 45d 107 2025 05 12 08 16 04 20.613 +30 20 01.67 .04269 1.0382 130.2 21.5 45d 107 2025 05 12 09 16 05 08.810 +30 28 53.83 .04286 1.0382 130.0 21.5 45d 107 2025 05 12 10 16 05 56.781 +30 37 40.69 .04302 1.0382 129.8 21.5 45d 107 2025 05 12 11 16 06 44.526 +30 46 22.31 .04319 1.0383 129.6 21.5 45d 107 2025 05 12 12 16 07 32.046 +30 54 58.73 .04335 1.0383 129.4 21.5 45d 107 2025 05 12 13 16 08 19.342 +31 03 30.00 .04352 1.0383 129.2 21.6 45d 107 2025 05 12 14 16 09 06.412 +31 11 56.16 .04368 1.0383 129.1 21.6 45d 107 2025 05 12 15 16 09 53.259 +31 20 17.27 .04385 1.0383 128.9 21.6 45d 107 2025 05 12 16 16 10 39.881 +31 28 33.36 .04402 1.0383 128.7 21.6 44d 107 2025 05 12 17 16 11 26.281 +31 36 44.48 .04419 1.0384 128.5 21.6 44d 107 2025 05 12 18 16 12 12.457 +31 44 50.69 .04436 1.0384 128.3 21.6 44d 107 2025 05 12 19 16 12 58.411 +31 52 52.02 .04453 1.0384 128.2 21.6 44d 107 2025 05 12 20 16 13 44.143 +32 00 48.53 .04470 1.0384 128.0 21.7 44d 107 2025 05 12 21 16 14 29.654 +32 08 40.25 .04487 1.0384 127.8 21.7 44d 107 2025 05 12 22 16 15 14.944 +32 16 27.24 .04504 1.0384 127.7 21.7 44d 107